Location: Eysins
(46.3803°N, 6.2042°E)
Time: 18:29:09
(UTC+00:00)

Daily predictions for brighter satellites

Satellite Brightness Start Highest point End
(mag) Time Altitude Azimuth Time Altitude Azimuth Time Altitude Azimuth
Cosmos 2315 Rocket 4.1 18:28:10 10° S 18:34:20 59° E 18:40:35 10° NNE
STARLINK-1102 3.6 18:33:05 10° WNW 18:37:16 89° S 18:41:24 10° ESE
FREGAT/IRIS 3.3 18:35:53 10° SE 18:38:18 29° ENE 18:40:45 10° N
Resurs 01 Rocket 3.5 18:35:59 10° E 18:38:19 14° ENE 18:40:40 10° NNE
Cosmos 1626 Rocket 3.6 18:34:33 10° N 18:38:55 61° ENE 18:43:12 10° SSE
Cosmos 2369 Rocket 2.6 18:33:26 10° NNW 18:38:55 46° NE 18:44:21 10° SE
Aureole 3 4.4 18:35:16 10° SSE 18:39:21 37° E 18:44:28 10° NNE
Cosmos 1733 4.0 18:36:07 10° SSW 18:39:49 57° WNW 18:43:33 10° N
GEOS 3 Rocket 4.4 18:34:55 10° SSE 18:39:55 53° WSW 18:45:02 10° NW
NOSS 3-3 (A) 4.4 18:34:46 10° S 18:40:03 37° ESE 18:45:53 10° NE
NOSS 3-3 (C) 4.4 18:34:53 10° S 18:40:10 37° ESE 18:45:58 10° NE
Cosmos 1626 2.2 18:37:52 10° N 18:41:35 82° W 18:45:17 10° S
STARLINK-1111 3.7 18:38:04 10° WNW 18:42:13 84° SSW 18:46:22 10° SE
Cosmos 1943 Rocket 2.2 18:39:31 10° NNW 18:45:02 64° ENE 18:50:34 10° SE
SL-8 R/B 3.7 18:40:16 10° WNW 18:45:04 83° NNE 18:49:51 10° ESE
Cosmos 1437 4.3 18:43:26 10° NNE 18:45:33 17° ENE 18:47:33 10° ESE
Meteor 1-24 Rocket 4.4 18:40:54 10° NNW 18:46:15 57° W 18:51:26 10° S
Cosmos 1709 Rocket 4.0 18:40:22 10° N 18:46:35 87° E 18:52:43 10° S
ADEOS Rocket 3.6 18:40:19 10° N 18:46:53 66° WNW 18:52:45 10° SSW
STARLINK-1073 3.7 18:43:03 10° WNW 18:47:12 78° SSW 18:51:20 10° SE
Cosmos 1602 Rocket 3.6 18:44:16 10° N 18:48:41 60° ENE 18:53:03 10° SSE
Cosmos 1470 2.7 18:47:38 10° S 18:51:30 77° E 18:55:25 10° NNE
STARLINK-1121 3.8 18:48:01 10° WNW 18:52:10 73° SSW 18:56:15 10° SE
Ariane Rocket 3.0 18:50:48 10° SSE 18:55:52 85° ENE 19:00:57 10° NNW
STARLINK-1106 3.8 18:53:00 10° WNW 18:57:07 68° SW 19:01:01 11° SE
Abrixas rocket 1.9 18:55:30 10° WSW 18:58:28 84° NNW 19:01:18 11° ENE
Cosmos 1544 Rocket 4.3 18:54:52 10° SSW 18:59:13 58° WNW 19:03:37 10° N
Aureole 2 Rocket 2.4 18:56:30 10° NNW 18:59:59 62° ENE 19:03:23 10° SSE
Cosmos 2074 Rocket 4.3 18:55:25 10° N 19:01:29 48° ENE 19:07:32 10° SSE
STARLINK-1112 3.9 18:58:00 10° WNW 19:02:06 63° SW 19:05:49 12° SE
ATLAS 2AS CENTAUR R/B 3.6 18:55:36 10° NW 19:02:51 41° NE 19:08:47 13° ESE
Cosmos 1943 3.7 18:58:09 10° S 19:03:18 38° ESE 19:08:29 10° NE
IRIDIUM 103 4.5 18:59:03 10° N 19:04:11 54° E 19:09:17 10° SSE
ISS -3.6 19:01:20 10° WNW 19:04:42 70° SSW 19:07:16 16° SE
Cosmos 1825 Rocket 4.2 19:02:15 10° N 19:06:21 37° ENE 19:10:02 12° SE
STARLINK-1128 4.0 19:03:00 10° WNW 19:07:04 58° SW 19:10:37 13° SE
USA 234 3.8 19:01:46 10° ENE 19:07:36 34° SE 19:13:23 10° SSW
SL-08 RB Rocket 3.8 19:03:47 10° SSE 19:08:12 56° ENE 19:12:42 10° N
STARLINK-1113 4.2 19:07:59 10° WNW 19:12:02 53° SW 19:15:23 14° SE
SPOT 3 Rocket 3.8 19:07:19 10° SE 19:12:22 53° ENE 19:17:26 10° N
STARLINK-1119 4.3 19:12:59 10° WNW 19:17:00 49° SW 19:20:11 15° SSE
SeaSat 1 4.2 19:13:13 10° NNE 19:17:41 35° NW 19:22:07 10° WSW
Cosmos 1758 Rocket 3.6 19:13:54 10° N 19:18:12 57° ENE 19:22:13 11° SSE
SJ-6B 2.9 19:14:36 10° SSE 19:18:42 85° ENE 19:22:52 10° NNW
STARLINK-1114 4.4 19:17:59 10° WNW 19:21:57 45° SW 19:24:58 16° SSE
IRIDIUM 106 4.3 19:17:15 10° N 19:22:30 78° E 19:27:42 10° S
MOS 1 Rocket 4.1 19:18:29 10° NNE 19:23:29 39° E 19:28:32 10° SSE
SL-16 R/B 3.7 19:19:21 10° WSW 19:24:39 40° NW 19:29:58 10° NNE
Cosmos 1953 Rocket 4.1 19:21:09 10° N 19:25:22 40° ENE 19:27:53 21° SE
CZ-2C R/B 3.3 19:23:24 10° S 19:28:20 66° WSW 19:33:07 10° NNW
Cosmos 1818 3.8 19:23:14 10° S 19:28:22 45° ESE 19:33:32 10° NE
Cosmos 1606 Rocket 3.8 19:24:41 10° SSE 19:28:55 48° E 19:33:13 10° NNE
BREEZE M DEB (TANK) 4.3 19:20:59 10° SW 19:32:03 46° SSE 19:34:30 22° E
Cosmos 407 Rocket 4.2 19:30:02 14° SSE 19:33:43 29° E 19:38:07 10° NE
Cosmos 2228 3.1 19:30:51 10° S 19:34:59 51° E 19:39:12 10° NNE
SL-24 R/B 3.8 19:30:59 10° NNE 19:35:19 68° E 19:39:09 10° S
CZ-2C R/B 2.8 19:30:34 10° NNE 19:35:32 45° E 19:40:30 10° S
Cosmos 1656 Rocket 3.8 19:31:13 10° NNW 19:36:51 61° ENE 19:40:14 24° SE
Meteor 1-21 Rocket 4.5 19:32:15 10° NNW 19:37:46 68° W 19:43:15 10° S
Cosmos 1992 Rocket 4.4 19:33:11 10° NNW 19:38:22 65° WSW 19:43:30 10° S
ARGOS 3.8 19:36:04 10° S 19:41:23 57° W 19:46:42 10° NNW
MetOp-A 4.1 19:38:31 12° SSE 19:43:28 87° ENE 19:48:52 10° NNW
SL-4 R/B 2.5 19:41:20 10° SSW 19:43:45 30° SSE 19:43:45 30° SSE
BREEZE-M DEB (TANK) 3.4 19:38:44 10° WNW 19:44:55 77° NNE 19:45:58 39° E
COSMOS 2455 3.8 19:40:07 10° NNW 19:45:30 33° NE 19:48:18 22° E
USA 186 3.9 19:43:38 10° SSW 19:46:36 28° W 19:49:31 10° NW
Cosmos 1603 3.7 19:41:09 10° SSW 19:46:47 82° WNW 19:52:26 10° NNE
Cosmos 1726 2.4 19:43:40 10° SSW 19:47:23 69° W 19:51:08 10° N
Cosmos 1340 Rocket 3.4 19:47:46 34° E 19:47:48 34° E 19:51:30 10° NNE
ERS-1 Rocket 4.4 19:47:59 19° ENE 19:48:51 20° ENE 19:52:27 10° NNE
H-2A R/B 3.4 19:45:24 10° SSW 19:50:18 39° W 19:55:07 10° NNW
Meteor 1-16 Rocket 4.1 19:48:05 10° S 19:53:27 86° W 19:59:01 10° N
Cosmos 1328 3.7 19:49:44 10° N 19:53:45 82° E 19:55:27 34° SSE
Resurs 1-3 3.6 19:51:24 21° S 19:54:18 82° WSW 19:58:43 10° NNW
Cosmos 2184 Rocket 4.2 19:51:50 10° NNW 19:58:06 71° W 20:04:18 10° S
Cosmos 1703 3.4 20:01:15 10° NNW 20:05:13 71° W 20:06:52 33° S
Cosmos 1461 3.8 20:02:49 10° NNW 20:07:05 40° NE 20:07:55 37° ENE
Cosmos 1953 4.2 20:03:51 10° SW 20:07:23 30° WNW 20:10:57 10° N
DMSP B5D2-2 4.1 20:04:46 10° NNE 20:10:00 78° WNW 20:15:13 10° SSW
Resurs 01 Rocket 1.7 20:12:28 35° S 20:14:14 73° WSW 20:18:40 10° NNW
APEX 4.3 20:10:57 10° NNW 20:17:45 79° ENE 20:19:41 45° SE
Cosmos 2181 Rocket 4.3 20:18:41 41° ESE 20:19:43 45° E 20:25:34 10° NNE
USA 245 4.3 20:18:18 46° SE 20:19:46 63° ENE 20:25:51 10° N
Cosmos 2058 Rocket 3.0 20:18:19 43° S 20:19:46 85° E 20:24:19 10° N
Cosmos 2154 Rocket 4.1 20:13:38 10° NNW 20:20:00 75° W 20:24:20 22° S
NOSS 3-4 (A) 3.8 20:14:48 10° NW 20:21:49 84° NE 20:24:57 39° SE
NOSS 3-4 (C) 3.8 20:14:55 10° NW 20:21:55 84° NE 20:25:02 39° SE
Cosmos 1300 4.3 20:23:46 25° NE 20:23:46 25° NE 20:25:36 10° NNE
Cosmos 2369 Rocket 3.8 20:17:50 10° NW 20:22:45 31° WSW 20:27:18 11° SSW
Landsat 7 3.9 20:24:18 53° E 20:24:32 53° ENE 20:29:11 10° N
Nadezhda 1 Rocket 4.3 20:20:35 10° SSW 20:26:56 68° W 20:33:19 10° N
Cosmos 962 Rocket 4.3 20:20:48 10° N 20:27:00 80° E 20:29:12 43° SSE
SL-8 R/B 4.4 20:22:58 10° W 20:27:23 38° SSW 20:27:50 37° SSW
Cosmos 1943 Rocket 4.3 20:24:15 10° NW 20:28:15 21° W 20:32:17 10° SSW
Cosmos 1908 4.3 20:27:24 20° SW 20:29:44 44° WNW 20:33:29 10° N
SL-8 Rocket 4.1 20:25:22 10° N 20:31:37 60° ENE 20:32:54 50° ESE
Abrixas rocket 4.1 20:31:18 10° WNW 20:32:54 27° WNW 20:32:54 27° WNW
SL-24 R/B - RUBIN 2 4.1 20:32:19 10° SSW 20:37:49 71° ESE 20:44:05 10° NE
SPOT 5 3.7 20:39:20 33° NE 20:39:20 33° NE 20:42:24 10° N
Cosmos 2058 4.3 20:35:31 10° N 20:37:54 28° NNE 20:37:54 28° NNE
ISS -0.9 20:39:41 10° WSW 20:40:16 11° WSW 20:40:16 11° WSW
Cosmos 2366 rocket 4.0 20:35:54 10° N 20:41:58 56° ENE 20:42:31 54° E
Cosmos 1190 Rocket 4.0 20:40:52 29° SSW 20:43:38 84° WNW 20:48:58 10° NNE
Spot 2 Rocket 3.6 20:46:23 60° SSW 20:47:12 72° WSW 20:52:20 10° NNW
Aureole 1 Rocket 4.5 20:42:47 10° SSW 20:50:34 67° WNW 20:56:45 10° NNE
USA 234 3.2 20:44:27 10° NE 20:51:01 81° NNW 20:57:34 10° WSW
Cosmos 1140 Rocket 3.4 20:51:22 56° SW 20:52:28 81° WNW 20:57:40 10° NNE
Cosmos 1959 Rocket 4.4 20:46:38 10° N 20:52:59 70° E 20:53:38 65° ESE
ATLAS 2AS CENTAUR R/B 3.0 20:46:49 10° NW 20:54:16 63° WSW 20:56:14 47° S
Iridium 4 Rocket 4.1 20:53:56 10° N 20:56:43 38° NNE 20:56:43 38° NNE
Meteor 2-12 Rocket 4.5 20:53:54 10° N 20:59:54 60° ENE 20:59:54 60° ENE
BREEZE M DEB (TANK) 3.9 21:02:08 53° E 21:02:08 53° E 21:12:35 10° ENE
Terra 2.7 21:07:37 41° NNE 21:07:37 41° NNE 21:11:01 10° N
Cosmos 1697 Rocket 4.2 21:02:17 10° N 21:06:53 25° NE 21:06:58 25° NE
Cosmos 921 Rocket 4.2 21:06:30 10° NNW 21:09:39 39° WNW 21:09:39 39° WNW
Cosmos 676 Rocket 4.2 21:12:05 69° N 21:12:05 69° N 21:16:47 10° NNE
CZ-4C R/B 4.2 21:08:40 10° NNW 21:14:24 28° NNE 21:17:32 21° ENE
SPOT 1/Viking Rocket 3.9 21:17:02 61° W 21:17:02 61° W 21:22:05 10° NNW
SL-08 R/B 4.4 21:11:22 10° N 21:17:08 69° NE 21:17:08 69° NE
Cosmos 1821 Rocket 4.5 21:18:30 10° N 21:23:55 48° NE 21:23:55 48° NE
ERS-1 Rocket 3.5 21:27:58 54° WNW 21:27:58 54° WNW 21:32:12 10° NNW
COSMOS 2455 3.2 21:25:53 10° NW 21:31:27 57° WSW 21:31:27 57° WSW
Cosmos 1980 Rocket 3.9 21:29:47 10° N 21:33:52 22° NE 21:33:52 22° NE
ATLAS CENTAUR R/B 4.1 21:41:16 10° N 21:42:19 14° N 21:42:19 14° N
Cosmos 1656 4.4 21:46:07 10° NNW 21:50:24 51° N 21:50:24 51° N
ATLAS 5 CENTAUR R/B 3.9 22:02:17 21° NNE 22:02:17 21° NNE 22:04:18 10° NNE
USA 234 4.3 22:27:34 10° NE 22:33:35 41° NNW 22:39:37 10° W
Terra 4.4 22:46:29 15° WNW 22:46:29 15° WNW 22:47:49 10° NW
Cosmos 1697 Rocket 4.2 22:45:44 10° NNW 22:48:42 32° NW 22:48:42 32° NW
Mayak 1.7 22:49:10 10° N 22:49:57 14° NNW 22:49:57 14° NNW
SL-16 R/B 3.9 22:57:01 10° NNW 23:00:33 27° NNE 23:00:33 27° NNE
CZ-4C R/B 3.2 22:56:55 10° NW 23:02:43 61° NNW 23:02:43 61° NNW
Cosmos 2360 Rocket 4.3 23:06:53 10° N 23:10:44 19° NE 23:10:44 19° NE
Cosmos 2322 Rocket 3.9 23:08:22 10° NNW 23:11:48 27° NNE 23:11:48 27° NNE
Cosmos 1980 Rocket 3.9 23:13:08 10° NNW 23:15:38 27° NW 23:15:38 27° NW
Cosmos 2344 4.3 23:28:41 10° NW 23:38:24 80° SW 23:38:51 78° SSW
Cosmos 2082 Rocket 3.8 23:44:34 30° N 23:44:34 30° N 23:47:35 10° NNE
